User: anonymous   Login
Location: Montr�al
(45.5000°N, 73.5830°W)
Time: 14:29:18
(UTC-05:00)
Language:

Cosmos 1151 Rocket - Orbit

View from above orbital plane
View from above orbital plane
View from above satellite
View from above satellite

Ground track
Ground track

The orbit data is extracted from the following two-line orbital elements,

1 11672U 80005B   14355.20449512  .00000925  00000-0  99349-4 0  2105
2 11672 082.5148 217.0974 0018520 094.6362 041.1265 14.87396834888256
Epoch (UTC): 21 December 2014 04:54:28
Eccentricity: 0.0018520
inclination: 82.5148°
perigee height: 593 km
apogee height: 619 km
right ascension of ascending node: 217.0974°
argument of perigee: 94.6362°
revolutions per day: 14.87396834
mean anomaly at epoch: 41.1265°
orbit number at epoch: 88825

The dashed part of the orbit path shows where the satellite is in the earth's shadow,  

DLR